KC5DAQ-25 Weather Reports


Display with metric or nautical units.
time (UTC)temp
F
wind
direction
speed
MPH
gust
MPH
rain 1hr
in
rain 24hr
in
rain mn
in
humidity
%
barometer
mb
20260503002436 69 86 0.0 0.0 0.00 0.03 0.00 73 1010.3
20260503002336 69 86 0.0 0.0 0.00 0.03 0.00 72 1010.3
20260503002238 69 86 0.0 0.0 0.00 0.04 0.00 72 1010.3
20260503002137 69 86 0.0 0.0 0.00 0.04 0.00 72 1010.3
20260503002036 69 86 0.0 0.0 0.00 0.04 0.00 68 1010.3
20260503001936 69 86 0.0 0.0 0.00 0.04 0.00 68 1010.3
20260503001838 69 86 0.0 0.0 0.00 0.04 0.00 68 1010.3
20260503001736 69 86 0.0 0.0 0.00 0.05 0.00 69 1010.3
20260503001636 70 86 0.0 0.0 0.00 0.05 0.00 70 1010.2
20260503001536 70 86 0.0 0.0 0.00 0.05 0.00 70 1010.2
20260503001436 70 86 0.0 1.0 0.00 0.05 0.00 66 1010.2
20260503001337 70 86 0.0 1.0 0.00 0.06 0.00 66 1010.2
20260503001237 70 86 0.0 1.0 0.00 0.06 0.00 66 1010.2
20260503001136 70 86 0.0 1.0 0.00 0.06 0.00 69 1010.2
20260503001037 70 86 0.0 1.0 0.00 0.06 0.00 69 1010.2
20260503000936 71 86 0.0 1.0 0.00 0.06 0.00 67 1010.2
20260503000837 71 86 0.0 1.0 0.00 0.06 0.00 66 1010.1
20260503000736 71 86 0.0 1.0 0.00 0.06 0.00 66 1010.1
20260503000637 71 86 0.0 1.0 0.00 0.06 0.00 66 1010.1
20260503000536 71 86 1.0 1.0 0.00 0.06 0.00 63 1010.2
20260503000437 71 86 0.0 1.0 0.00 0.06 0.00 65 1010.2
20260503000337 71 89 0.0 1.0 0.00 0.06 0.00 64 1010.1
20260503000237 71 89 0.0 1.0 0.00 0.06 0.00 64 1010.1
20260503000136 71 89 0.0 1.0 0.00 0.06 0.00 63 1010.1
20260503000036 71 89 0.0 1.0 0.00 0.06 0.00 63 1010.1
20260502235937 71 89 0.0 1.0 0.00 0.06 0.00 63 1010.1
20260502235837 71 89 0.0 1.0 0.00 0.06 0.00 63 1010.1
20260502235736 71 89 0.0 1.0 0.00 0.06 0.00 61 1010.1
20260502235635 71 89 0.0 1.0 0.00 0.06 0.00 61 1010.2
20260502235537 71 89 0.0 1.0 0.00 0.07 0.00 63 1010.1
20260502235435 71 89 0.0 1.0 0.00 0.07 0.00 63 1010.1
20260502235336 71 89 0.0 1.0 0.00 0.07 0.00 65 1010.1
20260502235236 71 89 0.0 1.0 0.00 0.07 0.00 62 1010.1
20260502235135 71 89 0.0 0.0 0.00 0.07 0.00 62 1010.1
20260502235035 71 89 0.0 2.0 0.00 0.08 0.00 62 1010.1
20260502234936 71 89 0.0 3.0 0.00 0.08 0.00 62 1010.1
20260502234838 71 89 0.0 3.0 0.00 0.08 0.00 62 1010.1
20260502234735 72 89 0.0 3.0 0.00 0.09 0.00 61 1010.1
20260502234635 72 89 0.0 3.0 0.00 0.09 0.00 61 1010.1
20260502234535 72 89 0.0 3.0 0.00 0.09 0.00 61 1010.1
20260502234436 72 89 0.0 4.0 0.00 0.09 0.00 61 1010.0
20260502234335 72 89 0.0 6.0 0.00 0.09 0.00 61 1010.1
20260502234235 72 89 1.0 6.0 0.00 0.09 0.00 60 1010.1
20260502234137 72 89 1.0 6.0 0.00 0.09 0.00 60 1010.0
20260502234035 72 86 1.0 6.0 0.00 0.10 0.00 60 1010.0
20260502233937 72 134 1.0 6.0 0.00 0.10 0.00 59 1010.1
20260502233836 72 134 1.0 6.0 0.00 0.10 0.00 60 1009.9
20260502233735 72 134 1.0 6.0 0.00 0.11 0.00 60 1009.9
20260502233635 72 134 1.0 6.0 0.00 0.11 0.00 63 1009.9
20260502233535 72 134 2.0 6.0 0.00 0.11 0.00 63 1009.9
20260502233435 72 118 2.0 6.0 0.00 0.11 0.00 63 1009.9
20260502233335 72 103 1.0 3.0 0.00 0.12 0.00 63 1010.0
20260502233237 72 87 1.0 3.0 0.00 0.12 0.00 63 1010.0
20260502233131 72 127 1.0 2.0 0.00 0.12 0.00 62 1010.0
20260502233031 72 127 1.0 2.0 0.00 0.13 0.00 59 1010.0
20260502232931 72 118 0.0 2.0 0.00 0.13 0.00 60 1010.0
20260502232831 72 118 0.0 2.0 0.00 0.14 0.00 60 1010.0
20260502232733 72 118 0.0 2.0 0.00 0.14 0.00 58 1010.0
20260502232631 72 118 0.0 2.0 0.00 0.15 0.00 58 1010.0
20260502232531 72 130 0.0 2.0 0.00 0.16 0.00 61 1010.0
20260502232433 72 137 0.0 2.0 0.00 0.16 0.00 61 1010.0
20260502232331 72 138 0.0 2.0 0.00 0.16 0.00 61 1010.1
20260502232231 72 138 0.0 2.0 0.00 0.16 0.00 61 1010.1
20260502232131 72 138 0.0 2.0 0.00 0.16 0.00 59 1010.0
20260502232030 72 138 0.0 2.0 0.00 0.16 0.00 59 1010.1
20260502231932 72 138 0.0 2.0 0.00 0.16 0.00 59 1010.0
20260502231824 72 137 0.0 2.0 0.00 0.16 0.00 60 1010.1
20260502231724 72 137 1.0 2.0 0.00 0.16 0.00 60 1010.0
20260502231623 72 137 1.0 2.0 0.00 0.16 0.00 60 1010.0
20260502231524 72 83 0.0 3.0 0.00 0.16 0.00 60 1010.0
20260502231421 73 279 1.0 3.0 0.00 0.16 0.00 61 1010.0
20260502231322 73 279 0.0 3.0 0.00 0.16 0.00 61 1010.0
20260502231221 73 279 1.0 3.0 0.00 0.16 0.00 61 1010.0
20260502231120 73 279 1.0 3.0 0.00 0.16 0.00 62 1010.0
20260502231018 73 279 0.0 3.0 0.00 0.16 0.00 62 1010.0
20260502230915 73 279 0.0 3.0 0.00 0.16 0.00 62 1010.0
20260502230815 73 279 1.0 4.0 0.00 0.16 0.00 62 1010.0
20260502230714 73 279 1.0 4.0 0.00 0.16 0.00 62 1010.0
20260502230615 73 186 1.0 4.0 0.00 0.16 0.00 62 1010.0
20260502230515 73 72 1.0 4.0 0.00 0.16 0.00 62 1010.0
20260502230411 73 123 1.0 4.0 0.00 0.17 0.00 62 1009.9
20260502230309 73 127 0.0 4.0 0.00 0.17 0.00 60 1009.9
20260502230208 73 127 0.0 4.0 0.00 0.17 0.00 59 1010.0
20260502230104 73 127 1.0 5.0 0.00 0.17 0.00 58 1010.0
20260502230005 73 127 2.0 5.0 0.00 0.17 0.00 58 1010.0
20260502225902 73 127 2.0 5.0 0.00 0.17 0.00 58 1010.1
20260502225802 74 137 1.0 5.0 0.00 0.17 0.00 55 1010.0
20260502225704 74 145 1.0 5.0 0.00 0.17 0.00 55 1010.0
20260502225601 74 145 2.0 5.0 0.00 0.17 0.00 55 1010.0
20260502225502 74 54 2.0 5.0 0.00 0.17 0.00 55 1010.0
20260502225404 74 162 1.0 5.0 0.00 0.17 0.00 57 1010.0
20260502225304 74 49 2.0 5.0 0.00 0.18 0.00 57 1010.0
20260502225202 74 21 2.0 5.0 0.00 0.18 0.00 57 1010.1
20260502225102 74 127 1.0 3.0 0.00 0.18 0.00 57 1010.0
20260502225003 74 238 1.0 3.0 0.00 0.18 0.00 56 1010.0
20260502224902 74 231 1.0 3.0 0.00 0.19 0.00 56 1010.0
20260502224803 74 237 2.0 3.0 0.00 0.19 0.00 54 1010.0
20260502224702 74 223 1.0 3.0 0.00 0.19 0.00 54 1010.0
20260502224602 74 75 1.0 3.0 0.00 0.19 0.00 56 1010.1
20260502224504 74 75 0.0 3.0 0.00 0.20 0.00 58 1010.0
20260502224402 74 79 1.0 3.0 0.00 0.20 0.00 58 1010.0
20260502224303 74 79 1.0 3.0 0.00 0.21 0.00 58 1010.0
20260502224203 74 28 1.0 3.0 0.00 0.21 0.00 58 1010.0
20260502224102 74 235 1.0 3.0 0.00 0.22 0.00 58 1010.0
20260502224003 74 11 2.0 3.0 0.00 0.22 0.00 58 1010.0
20260502223902 74 120 1.0 3.0 0.00 0.22 0.00 58 1010.0
20260502223802 74 237 1.0 3.0 0.00 0.22 0.00 58 1009.9
20260502223703 74 142 1.0 3.0 0.00 0.23 0.00 58 1010.0
20260502223602 74 142 1.0 3.0 0.00 0.23 0.00 56 1010.0
20260502223503 74 142 1.0 3.0 0.00 0.23 0.00 57 1010.0
20260502223404 74 10 1.0 3.0 0.00 0.23 0.00 57 1010.0
20260502223302 74 8 2.0 3.0 0.00 0.23 0.00 58 1010.0
20260502223200 74 114 2.0 3.0 0.00 0.23 0.00 58 1010.0
20260502223045 74 140 1.0 2.0 0.00 0.23 0.00 58 1010.0
20260502222935 74 110 1.0 2.0 0.00 0.23 0.00 55 1010.1
20260502222835 74 34 1.0 2.0 0.00 0.23 0.00 55 1010.1
20260502222733 74 148 1.0 3.0 0.00 0.23 0.00 55 1010.1
20260502222634 74 252 0.0 3.0 0.00 0.23 0.00 55 1010.1
20260502222533 74 252 0.0 3.0 0.00 0.23 0.00 55 1010.1
20260502222434 74 252 1.0 3.0 0.00 0.23 0.00 56 1010.1
20260502222334 74 252 1.0 3.0 0.00 0.23 0.00 56 1010.1
20260502222234 74 116 2.0 3.0 0.00 0.23 0.00 57 1010.1
20260502222133 74 49 1.0 3.0 0.00 0.23 0.00 57 1010.1
20260502222033 74 107 1.0 3.0 0.00 0.23 0.00 57 1010.1
20260502221934 74 114 2.0 3.0 0.00 0.23 0.00 60 1010.1
20260502221833 74 190 2.0 4.0 0.00 0.23 0.00 58 1010.1
20260502221734 74 94 1.0 4.0 0.00 0.23 0.00 58 1010.1
20260502221633 74 166 0.0 6.0 0.00 0.23 0.00 58 1010.2
20260502221533 74 166 1.0 6.0 0.00 0.23 0.00 58 1010.2
20260502221434 74 166 0.0 6.0 0.00 0.23 0.00 58 1010.2
20260502221334 74 166 0.0 6.0 0.00 0.23 0.00 58 1010.2
20260502221233 74 166 0.0 6.0 0.00 0.23 0.00 61 1010.2
20260502221134 74 166 1.0 6.0 0.00 0.23 0.00 56 1010.1
20260502221034 74 166 2.0 6.0 0.00 0.23 0.00 56 1010.2
20260502220934 74 173 2.0 6.0 0.00 0.23 0.00 56 1010.2
20260502220833 74 89 2.0 6.0 0.00 0.23 0.00 55 1010.2
20260502220736 74 44 2.0 6.0 0.00 0.23 0.00 57 1010.2
20260502220633 74 10 1.0 3.0 0.00 0.23 0.00 57 1010.3
20260502220533 74 307 1.0 3.0 0.00 0.23 0.00 57 1010.2
20260502220433 74 23 0.0 3.0 0.00 0.23 0.00 57 1010.2
20260502220333 74 109 0.0 3.0 0.00 0.23 0.00 57 1010.3
20260502220233 74 109 1.0 3.0 0.00 0.23 0.00 57 1010.3
20260502220133 74 109 1.0 3.0 0.00 0.23 0.00 57 1010.2
20260502220034 74 102 1.0 3.0 0.00 0.23 0.00 57 1010.2
20260502215934 74 357 1.0 4.0 0.00 0.23 0.00 57 1010.2
20260502215833 74 357 1.0 4.0 0.00 0.23 0.00 57 1010.2
20260502215733 74 357 1.0 4.0 0.00 0.23 0.00 57 1010.2
20260502215633 74 357 2.0 4.0 0.00 0.23 0.00 57 1010.2
20260502215533 74 38 2.0 4.0 0.00 0.23 0.00 60 1010.1
20260502215434 74 286 2.0 4.0 0.00 0.23 0.00 58 1010.2
20260502215333 74 79 1.0 4.0 0.00 0.23 0.00 58 1010.1
20260502215234 74 75 1.0 4.0 0.00 0.23 0.00 58 1010.2
20260502215133 74 265 2.0 4.0 0.00 0.23 0.00 58 1010.1
20260502215033 74 264 2.0 4.0 0.00 0.23 0.00 59 1010.1
20260502214934 74 127 1.0 5.0 0.00 0.23 0.00 55 1010.1
20260502214833 74 127 1.0 5.0 0.00 0.23 0.00 55 1010.1
20260502214732 74 100 1.0 5.0 0.00 0.23 0.00 59 1010.2
20260502214634 74 100 2.0 5.0 0.00 0.23 0.00 59 1010.2
20260502214533 74 97 2.0 5.0 0.00 0.24 0.00 58 1010.2
20260502214432 74 233 1.0 5.0 0.00 0.24 0.00 58 1010.2
20260502214332 74 329 1.0 5.0 0.00 0.24 0.00 58 1010.2
20260502214235 74 329 1.0 5.0 0.00 0.24 0.00 57 1010.3
20260502214132 74 329 2.0 5.0 0.00 0.24 0.00 61 1010.3
20260502214033 74 63 2.0 5.0 0.00 0.24 0.00 61 1010.2
20260502213933 74 114 2.0 3.0 0.00 0.24 0.00 59 1010.2
20260502213833 74 118 2.0 3.0 0.00 0.24 0.00 59 1010.3
20260502213732 74 82 2.0 3.0 0.00 0.24 0.00 59 1010.3
20260502213632 74 210 1.0 5.0 0.00 0.24 0.00 59 1010.2
20260502213532 74 213 1.0 5.0 0.00 0.24 0.00 60 1010.3
20260502213432 74 183 1.0 5.0 0.00 0.24 0.00 60 1010.2
20260502213333 74 183 1.0 5.0 0.00 0.24 0.00 58 1010.3
20260502213232 74 295 1.0 5.0 0.00 0.24 0.00 58 1010.3
20260502213132 74 295 1.0 5.0 0.00 0.24 0.00 58 1010.3
20260502213033 74 73 1.0 5.0 0.00 0.24 0.00 58 1010.3
20260502212932 74 73 1.0 5.0 0.00 0.24 0.00 58 1010.3
20260502212832 74 73 2.0 5.0 0.00 0.24 0.00 58 1010.3
20260502212733 74 281 2.0 5.0 0.00 0.24 0.00 60 1010.3
20260502212633 74 82 1.0 3.0 0.00 0.24 0.00 60 1010.3
20260502212533 74 114 1.0 3.0 0.00 0.24 0.00 60 1010.3
20260502212432 74 188 1.0 3.0 0.00 0.24 0.00 60 1010.4
20260502212332 73 188 1.0 3.0 0.00 0.24 0.00 60 1010.4
20260502212233 73 214 1.0 3.0 0.00 0.24 0.00 60 1010.3
20260502212132 73 221 1.0 3.0 0.00 0.24 0.00 55 1010.3
20260502212033 74 221 1.0 3.0 0.00 0.24 0.00 57 1010.4
20260502211932 74 221 1.0 3.0 0.00 0.25 0.00 58 1010.4
20260502211832 74 195 1.0 3.0 0.00 0.25 0.00 58 1010.3
20260502211732 74 65 1.0 3.0 0.00 0.25 0.00 56 1010.4
20260502211632 74 192 1.0 3.0 0.00 0.25 0.00 58 1010.4
20260502211533 74 52 1.0 3.0 0.00 0.25 0.00 58 1010.4
20260502211432 74 282 1.0 3.0 0.00 0.26 0.00 58 1010.4
20260502211332 74 87 1.0 3.0 0.00 0.26 0.00 58 1010.5
20260502211232 74 87 1.0 3.0 0.00 0.26 0.00 60 1010.5
20260502211132 74 87 1.0 3.0 0.00 0.26 0.00 60 1010.4
20260502211033 73 145 1.0 3.0 0.00 0.26 0.00 62 1010.5
20260502210932 73 78 1.0 3.0 0.00 0.27 0.00 62 1010.4
20260502210832 73 144 2.0 3.0 0.00 0.27 0.00 62 1010.4
20260502210732 73 147 1.0 3.0 0.00 0.27 0.00 60 1010.4
20260502210633 73 165 1.0 2.0 0.00 0.27 0.00 60 1010.4
20260502210532 73 165 0.0 2.0 0.00 0.27 0.00 61 1010.4
20260502210433 73 114 0.0 2.0 0.00 0.27 0.00 59 1010.5
20260502210332 74 114 0.0 2.0 0.00 0.27 0.00 59 1010.5
20260502210232 74 114 0.0 2.0 0.00 0.27 0.00 60 1010.5
20260502210133 74 114 0.0 2.0 0.00 0.27 0.00 60 1010.5
20260502210032 74 114 1.0 2.0 0.00 0.28 0.00 60 1010.5
20260502205931 74 117 1.0 2.0 0.00 0.28 0.00 60 1010.6
20260502205831 74 121 1.0 2.0 0.00 0.28 0.00 61 1010.5
20260502205733 74 121 0.0 2.0 0.00 0.28 0.00 59 1010.5
20260502205630 74 120 0.0 3.0 0.00 0.28 0.00 59 1010.6
20260502205532 74 120 1.0 3.0 0.00 0.28 0.00 59 1010.6
20260502205432 74 114 1.0 3.0 0.00 0.28 0.00 59 1010.6
20260502205331 74 114 1.0 3.0 0.00 0.28 0.00 59 1010.7
20260502205232 73 116 1.0 3.0 0.00 0.28 0.00 59 1010.6
20260502205131 73 0 1.0 3.0 0.00 0.28 0.00 59 1010.6
20260502205031 73 106 1.0 3.0 0.00 0.28 0.00 59 1010.6
20260502204931 73 106 1.0 3.0 0.00 0.28 0.00 59 1010.6
20260502204832 73 107 2.0 3.0 0.00 0.28 0.00 59 1010.6
20260502204733 72 52 2.0 3.0 0.00 0.28 0.00 62 1010.7
20260502204618 72 149 1.0 3.0 0.00 0.28 0.00 61 1010.7
20260502204516 72 71 0.0 3.0 0.00 0.28 0.00 61 1010.7
20260502204413 72 72 0.0 3.0 0.00 0.28 0.00 61 1010.7
20260502204310 72 72 0.0 3.0 0.00 0.28 0.00 58 1010.7
20260502204204 72 72 0.0 3.0 0.00 0.28 0.00 59 1010.8
20260502204107 72 68 1.0 3.0 0.00 0.28 0.00 59 1010.7
20260502204005 73 68 2.0 3.0 0.00 0.29 0.00 60 1010.7
20260502203903 73 340 1.0 3.0 0.00 0.29 0.00 61 1010.8
20260502203805 73 104 1.0 4.0 0.00 0.29 0.00 61 1010.7
20260502203703 73 106 1.0 4.0 0.00 0.29 0.00 60 1010.7
20260502203603 73 106 1.0 4.0 0.00 0.29 0.00 60 1010.8
20260502203504 73 106 2.0 4.0 0.00 0.29 0.00 60 1010.7
20260502203404 73 314 1.0 4.0 0.00 0.29 0.00 61 1010.7
20260502203302 73 278 1.0 4.0 0.00 0.29 0.00 61 1010.8
20260502203202 73 0 1.0 4.0 0.00 0.29 0.00 60 1010.7
20260502203105 73 97 0.0 4.0 0.00 0.29 0.00 60 1010.8
20260502203004 74 288 1.0 4.0 0.00 0.29 0.00 57 1010.7
20260502202904 74 288 2.0 4.0 0.00 0.29 0.00 55 1010.6
20260502202803 74 133 1.0 4.0 0.00 0.29 0.00 55 1010.7
20260502202703 74 24 1.0 4.0 0.00 0.29 0.00 59 1010.8
20260502202604 74 127 2.0 4.0 0.00 0.29 0.00 59 1010.7
20260502202504 74 127 2.0 4.0 0.00 0.29 0.00 55 1010.8
20260502202403 74 130 2.0 4.0 0.00 0.29 0.00 55 1010.9
20260502202305 75 303 2.0 4.0 0.00 0.29 0.00 59 1010.9
20260502202204 75 213 2.0 4.0 0.00 0.29 0.00 59 1010.9
20260502202103 74 68 1.0 4.0 0.00 0.29 0.00 56 1010.9
20260502202004 74 37 1.0 4.0 0.00 0.29 0.00 60 1010.9
20260502201903 74 299 1.0 4.0 0.00 0.29 0.00 60 1010.9
20260502201804 74 24 1.0 4.0 0.00 0.29 0.00 60 1010.8
20260502201704 74 61 2.0 4.0 0.00 0.30 0.00 57 1010.8
20260502201602 74 142 2.0 4.0 0.00 0.30 0.00 59 1010.8
20260502201504 74 116 1.0 4.0 0.00 0.30 0.00 59 1010.8
20260502201404 74 100 1.0 4.0 0.00 0.30 0.00 59 1010.9
20260502201303 74 217 1.0 4.0 0.00 0.30 0.00 59 1010.9
20260502201204 74 217 1.0 4.0 0.00 0.30 0.00 58 1010.9
20260502201102 74 306 2.0 4.0 0.00 0.30 0.00 61 1010.9
20260502201002 74 312 2.0 4.0 0.00 0.30 0.00 61 1010.9
20260502200857 74 86 2.0 4.0 0.00 0.30 0.00 60 1010.9
20260502200750 74 86 2.0 4.0 0.00 0.30 0.00 58 1010.9
20260502200650 74 128 2.0 3.0 0.00 0.31 0.00 59 1011.0
20260502200550 74 176 1.0 3.0 0.00 0.31 0.00 60 1011.0
20260502200447 74 54 2.0 3.0 0.00 0.31 0.00 59 1011.1
20260502200338 74 343 1.0 4.0 0.00 0.31 0.00 60 1011.0
20260502200231 74 116 1.0 4.0 0.00 0.31 0.00 60 1011.0
20260502200133 74 116 1.0 4.0 0.00 0.31 0.00 61 1011.0
20260502200033 74 116 1.0 4.0 0.00 0.32 0.00 56 1011.0
20260502195930 74 145 1.0 4.0 0.00 0.32 0.00 57 1011.0
20260502195830 74 109 1.0 4.0 0.00 0.32 0.00 58 1011.0
20260502195730 74 110 1.0 4.0 0.00 0.33 0.00 58 1011.0
20260502195631 74 110 2.0 4.0 0.00 0.33 0.00 60 1011.0
20260502195530 74 103 3.0 4.0 0.00 0.34 0.00 59 1011.1
20260502195430 74 110 3.0 4.0 0.00 0.34 0.00 59 1011.0
20260502195330 74 162 2.0 4.0 0.00 0.34 0.00 59 1011.0
20260502195230 74 289 2.0 4.0 0.00 0.34 0.00 59 1011.1
20260502195131 74 155 2.0 4.0 0.00 0.35 0.00 60 1011.1
20260502195030 74 79 1.0 4.0 0.00 0.35 0.00 59 1011.0
20260502194931 74 255 1.0 4.0 0.00 0.35 0.00 59 1011.1
20260502194831 74 255 1.0 4.0 0.00 0.35 0.00 59 1011.1
20260502194730 74 290 1.0 4.0 0.00 0.35 0.00 59 1011.1
20260502194630 74 203 1.0 4.0 0.00 0.36 0.00 61 1011.1
20260502194530 74 209 1.0 4.0 0.00 0.36 0.00 58 1011.2
20260502194430 74 209 1.0 4.0 0.00 0.36 0.00 58 1011.1
20260502194335 74 213 1.0 4.0 0.00 0.37 0.00 58 1011.2
20260502194230 74 299 1.0 4.0 0.00 0.37 0.00 58 1011.1
20260502194131 74 272 2.0 4.0 0.00 0.37 0.00 58 1011.2
20260502194031 74 79 2.0 3.0 0.00 0.38 0.00 59 1011.2
20260502193931 74 134 2.0 5.0 0.00 0.38 0.00 58 1011.1
20260502193830 74 135 2.0 5.0 0.00 0.38 0.00 58 1011.2
20260502193730 74 13 2.0 5.0 0.00 0.38 0.00 61 1011.2
20260502193631 74 65 2.0 5.0 0.00 0.38 0.00 63 1011.1
20260502193530 74 350 1.0 5.0 0.00 0.38 0.00 63 1011.3
20260502193430 74 87 1.0 5.0 0.00 0.38 0.00 63 1011.2
20260502193331 74 83 1.0 5.0 0.00 0.38 0.00 61 1011.1
20260502193230 74 85 1.0 5.0 0.00 0.38 0.00 61 1011.2
20260502193130 74 85 2.0 5.0 0.00 0.38 0.00 58 1011.3
20260502193031 74 66 2.0 5.0 0.00 0.38 0.00 58 1011.3
20260502192929 74 298 2.0 4.0 0.00 0.40 0.00 58 1011.4
20260502192830 74 75 1.0 4.0 0.00 0.40 0.00 61 1011.3
20260502192730 74 144 1.0 4.0 0.00 0.40 0.00 61 1011.3
20260502192629 74 4 1.0 4.0 0.00 0.40 0.00 60 1011.3
20260502192530 73 4 1.0 4.0 0.00 0.41 0.00 58 1011.3
20260502192430 74 0 2.0 4.0 0.00 0.41 0.00 58 1011.3
20260502192330 73 100 2.0 4.0 0.00 0.42 0.00 61 1011.4
20260502192231 73 109 2.0 4.0 0.00 0.42 0.00 62 1011.5
20260502192129 73 100 2.0 4.0 0.00 0.42 0.00 61 1011.4
20260502192031 73 103 1.0 3.0 0.00 0.42 0.00 61 1011.4
20260502191930 73 0 1.0 3.0 0.00 0.42 0.00 61 1011.5
20260502191830 73 118 1.0 3.0 0.00 0.42 0.00 57 1011.4
20260502191730 73 124 1.0 3.0 0.00 0.42 0.00 57 1011.6
20260502191630 73 124 1.0 3.0 0.00 0.42 0.00 57 1011.5
20260502191529 74 133 1.0 3.0 0.00 0.42 0.00 57 1011.5
20260502191430 74 120 1.0 3.0 0.00 0.42 0.00 61 1011.5
20260502191330 74 121 1.0 3.0 0.00 0.42 0.00 61 1011.6
20260502191231 74 117 1.0 4.0 0.00 0.42 0.00 61 1011.6
20260502191131 74 118 2.0 4.0 0.00 0.42 0.00 61 1011.6
20260502191030 73 100 1.0 4.0 0.00 0.42 0.00 58 1011.6
20260502190930 73 97 1.0 4.0 0.00 0.42 0.00 58 1011.5
20260502190831 73 96 2.0 4.0 0.00 0.42 0.00 61 1011.6
20260502190731 73 63 2.0 4.0 0.00 0.42 0.00 61 1011.4
20260502190630 73 97 2.0 4.0 0.00 0.42 0.00 61 1011.6
20260502190529 73 99 2.0 4.0 0.00 0.42 0.00 62 1011.6
20260502190430 73 251 2.0 4.0 0.00 0.42 0.00 62 1011.6
20260502190331 73 204 2.0 4.0 0.00 0.42 0.00 62 1011.6
20260502190230 73 313 2.0 3.0 0.00 0.42 0.00 62 1011.5
20260502190130 73 323 1.0 3.0 0.00 0.42 0.00 64 1011.6
20260502190030 73 323 1.0 3.0 0.00 0.42 0.00 64 1011.6
20260502185930 73 323 1.0 3.0 0.00 0.42 0.00 61 1011.7
20260502185830 73 219 1.0 3.0 0.00 0.42 0.00 58 1011.6
20260502185730 73 348 1.0 3.0 0.00 0.42 0.00 58 1011.6
20260502185630 72 20 1.0 3.0 0.00 0.42 0.00 60 1011.5
20260502185530 72 281 1.0 3.0 0.00 0.42 0.00 60 1011.7
20260502185428 72 281 1.0 5.0 0.00 0.42 0.00 60 1011.7
20260502185331 72 282 1.0 6.0 0.00 0.42 0.00 56 1011.6
20260502185220 73 282 1.0 6.0 0.00 0.42 0.00 62 1011.7
20260502185120 73 278 2.0 6.0 0.00 0.42 0.00 62 1011.7
20260502185020 73 333 1.0 6.0 0.00 0.42 0.00 61 1011.7
20260502184920 73 69 1.0 6.0 0.00 0.42 0.00 62 1011.8
20260502184817 73 78 2.0 6.0 0.00 0.42 0.00 64 1011.8
20260502184716 73 0 1.0 6.0 0.00 0.42 0.00 61 1011.8
20260502184615 73 161 2.0 6.0 0.00 0.42 0.00 61 1011.8
20260502184515 73 121 2.0 6.0 0.00 0.42 0.00 61 1011.8
20260502184415 73 310 1.0 3.0 0.00 0.42 0.00 64 1011.8
20260502184312 73 310 1.0 3.0 0.00 0.42 0.00 64 1011.8
20260502184212 72 331 1.0 3.0 0.00 0.42 0.00 66 1011.9
20260502184111 72 103 1.0 4.0 0.00 0.42 0.00 66 1011.8
20260502184011 72 116 2.0 4.0 0.00 0.42 0.00 65 1011.8
20260502183910 72 63 1.0 4.0 0.00 0.42 0.00 65 1011.9
20260502183803 72 254 1.0 4.0 0.00 0.42 0.00 65 1011.9
20260502183703 72 250 1.0 4.0 0.00 0.42 0.00 65 1011.9
20260502183604 72 250 1.0 4.0 0.00 0.42 0.00 65 1011.9
20260502183504 71 71 1.0 4.0 0.00 0.42 0.00 63 1011.9
20260502183403 71 71 1.0 4.0 0.00 0.42 0.00 61 1011.9
20260502183301 71 351 2.0 4.0 0.00 0.42 0.00 61 1012.0
20260502183202 71 80 1.0 4.0 0.00 0.42 0.00 61 1012.0
20260502183104 71 173 1.0 4.0 0.00 0.42 0.00 65 1012.0
20260502183003 71 171 2.0 4.0 0.00 0.42 0.00 65 1012.0
20260502182904 71 262 2.0 4.0 0.00 0.42 0.00 65 1012.1
20260502182804 71 348 1.0 4.0 0.00 0.42 0.00 65 1012.0
20260502182701 71 124 1.0 4.0 0.00 0.42 0.00 65 1012.0
20260502182603 71 124 2.0 4.0 0.00 0.42 0.00 62 1012.1
20260502182504 71 134 1.0 4.0 0.00 0.42 0.00 62 1012.1
20260502182403 71 110 2.0 4.0 0.00 0.42 0.00 62 1012.1
20260502182304 71 75 1.0 4.0 0.00 0.42 0.00 62 1012.1
20260502182158 71 76 2.0 4.0 0.00 0.42 0.00 61 1012.1
20260502182100 71 73 2.0 4.0 0.00 0.42 0.00 61 1012.1
20260502181959 72 96 2.0 4.0 0.00 0.42 0.00 61 1012.2
20260502181858 72 193 1.0 4.0 0.00 0.42 0.00 61 1012.1
20260502181752 72 54 1.0 4.0 0.00 0.42 0.00 61 1012.2
20260502181653 72 323 1.0 4.0 0.00 0.42 0.00 63 1012.2
20260502181550 72 0 2.0 5.0 0.00 0.42 0.00 63 1012.2
20260502181436 72 162 2.0 5.0 0.00 0.42 0.00 61 1012.2
20260502181332 72 142 2.0 5.0 0.00 0.42 0.00 61 1012.2
20260502181232 72 62 2.0 5.0 0.00 0.42 0.00 61 1012.2
20260502181134 72 334 1.0 5.0 0.00 0.42 0.00 61 1012.2
20260502181032 72 347 1.0 5.0 0.00 0.42 0.00 63 1012.2
20260502180932 72 307 2.0 5.0 0.00 0.42 0.00 63 1012.3
20260502180831 72 117 2.0 5.0 0.00 0.42 0.00 63 1012.3
20260502180731 72 355 2.0 5.0 0.00 0.42 0.00 60 1012.3
20260502180632 72 34 2.0 5.0 0.00 0.42 0.00 60 1012.3
20260502180532 72 343 2.0 4.0 0.00 0.42 0.00 60 1012.3
20260502180431 72 123 2.0 4.0 0.00 0.42 0.00 67 1012.4
20260502180331 72 344 2.0 4.0 0.00 0.42 0.00 64 1012.4
20260502180232 72 166 1.0 4.0 0.00 0.43 0.00 65 1012.3
20260502180132 72 137 1.0 4.0 0.00 0.43 0.00 66 1012.4
20260502170434 70 259 2.0 7.0 0.00 0.47 0.00 62 1012.7
20260502170334 70 100 2.0 7.0 0.00 0.47 0.00 65 1012.7
20260502170232 70 0 2.0 6.0 0.00 0.47 0.00 65 1012.7
20260502170131 70 107 2.0 6.0 0.00 0.47 0.00 65 1012.7
20260502164325 69 235 0.0 2.0 0.00 0.48 0.00 69 1012.8
20260502164226 69 235 0.0 2.0 0.00 0.48 0.00 69 1012.8
20260502164128 69 235 0.0 2.0 0.00 0.48 0.00 69 1012.8
20260502164024 69 235 0.0 2.0 0.00 0.48 0.00 69 1012.8
20260502163923 69 235 0.0 3.0 0.00 0.48 0.00 69 1012.8
20260502163823 69 235 0.0 3.0 0.00 0.48 0.00 69 1012.8
20260502163723 69 235 0.0 3.0 0.00 0.48 0.00 69 1012.8
20260502163622 69 235 0.0 3.0 0.00 0.48 0.00 69 1012.7
20260502163516 69 243 0.0 3.0 0.00 0.48 0.00 69 1012.8
20260502163418 69 243 1.0 3.0 0.00 0.48 0.00 71 1012.7
20260502163318 69 258 1.0 3.0 0.00 0.48 0.00 71 1012.7
20260502163214 69 265 1.0 3.0 0.00 0.48 0.00 71 1012.8
20260502163115 69 296 2.0 3.0 0.00 0.49 0.00 71 1012.7
20260502163015 69 296 1.0 4.0 0.00 0.49 0.00 71 1012.7
20260502162914 69 296 1.0 5.0 0.00 0.49 0.00 71 1012.7
20260502162812 69 288 1.0 6.0 0.00 0.49 0.00 71 1012.8
20260502162710 69 324 1.0 6.0 0.00 0.49 0.00 71 1012.8
20260502162612 69 326 0.0 6.0 0.00 0.49 0.00 71 1012.8
20260502162511 68 326 1.0 6.0 0.00 0.49 0.00 71 1012.7
20260502162405 68 326 1.0 6.0 0.00 0.49 0.00 68 1012.7
20260502162304 68 44 0.0 6.0 0.00 0.49 0.00 68 1012.8
20260502162205 68 44 2.0 6.0 0.00 0.49 0.00 68 1012.8
20260502162102 68 41 3.0 7.0 0.00 0.49 0.00 68 1012.9
20260502162001 68 83 3.0 7.0 0.00 0.49 0.00 69 1012.9
20260502161903 68 63 2.0 7.0 0.00 0.49 0.00 69 1012.7
20260502161804 68 71 1.0 7.0 0.00 0.50 0.00 69 1012.8
20260502161703 68 72 2.0 7.0 0.00 0.50 0.00 69 1012.8
20260502161606 68 80 2.0 7.0 0.00 0.50 0.00 69 1012.7
20260502161502 68 61 2.0 7.0 0.00 0.50 0.00 69 1012.8
20260502161403 68 72 1.0 7.0 0.00 0.50 0.00 70 1012.8
20260502161303 68 93 2.0 7.0 0.00 0.50 0.00 70 1012.8
20260502161202 68 113 3.0 7.0 0.00 0.50 0.00 72 1012.8
20260502161103 68 281 1.0 6.0 0.00 0.50 0.00 72 1012.8
20260502161002 67 234 1.0 6.0 0.00 0.51 0.00 73 1012.8
20260502160904 67 196 1.0 6.0 0.00 0.51 0.00 73 1012.7
20260502160803 67 195 1.0 6.0 0.00 0.51 0.00 73 1012.7
20260502160703 67 204 2.0 6.0 0.00 0.51 0.00 73 1012.7
20260502160602 67 56 1.0 6.0 0.00 0.51 0.00 71 1012.7
20260502160502 67 61 2.0 6.0 0.00 0.51 0.00 71 1012.7
20260502160404 67 86 2.0 6.0 0.00 0.52 0.00 72 1012.6
20260502160302 67 89 2.0 6.0 0.00 0.53 0.00 72 1012.7
20260502160202 67 0 1.0 3.0 0.00 0.53 0.00 72 1012.6
20260502160104 67 159 0.0 3.0 0.00 0.53 0.00 72 1012.6
20260502152331 65 271 1.0 4.0 0.00 0.71 0.00 78 1012.5
20260502152232 64 274 1.0 5.0 0.00 0.72 0.00 78 1012.4
20260502152131 64 345 1.0 5.0 0.00 0.72 0.00 78 1012.5
20260502152031 64 110 2.0 5.0 0.00 0.72 0.00 78 1012.4
20260502151932 64 41 1.0 5.0 0.00 0.73 0.00 79 1012.4
20260502151831 64 94 1.0 5.0 0.00 0.73 0.00 79 1012.5
20260502151731 64 73 1.0 5.0 0.00 0.73 0.00 79 1012.4
20260502151633 64 73 1.0 7.0 0.00 0.73 0.00 79 1012.4
20260502151531 64 66 2.0 7.0 0.00 0.73 0.00 79 1012.4
20260502151431 64 39 2.0 7.0 0.00 0.73 0.00 79 1012.4
20260502151332 64 41 2.0 7.0 0.00 0.73 0.00 79 1012.4
20260502151232 64 281 1.0 7.0 0.00 0.73 0.00 79 1012.4
20260502151133 64 58 1.0 7.0 0.00 0.73 0.00 79 1012.4
20260502151031 63 14 1.0 7.0 0.00 0.73 0.00 78 1012.5
20260502150931 63 16 1.0 7.0 0.00 0.73 0.00 78 1012.5
20260502150833 63 113 2.0 7.0 0.00 0.73 0.00 78 1012.5
20260502150731 63 93 2.0 7.0 0.00 0.73 0.00 80 1012.5
20260502150631 63 97 2.0 4.0 0.00 0.73 0.00 80 1012.5
20260502150532 63 90 2.0 4.0 0.00 0.74 0.00 80 1012.5
20260502150414 63 93 1.0 3.0 0.00 0.74 0.00 80 1012.5
20260502150314 63 79 1.0 3.0 0.00 0.74 0.00 81 1012.5
20260502150214 62 86 1.0 3.0 0.00 0.74 0.00 82 1012.6
20260502150113 62 90 1.0 3.0 0.00 0.74 0.00 82 1012.5
20260502140112 55 188 1.0 3.0 0.00 0.81 0.00 91 1012.1
20260502130730 51 120 0.0 0.0 0.00 0.97 0.00 90 1011.4
20260502130632 51 120 0.0 0.0 0.00 0.98 0.00 90 1011.4
20260502130529 51 120 0.0 0.0 0.00 0.98 0.00 90 1011.3
20260502130420 51 120 0.0 0.0 0.00 1.00 0.00 90 1011.4
20260502130310 51 120 0.0 0.0 0.00 1.00 0.00 90 1011.4
20260502130210 51 120 0.0 0.0 0.00 1.01 0.00 90 1011.4
20260502130111 51 120 0.0 0.0 0.00 1.02 0.00 90 1011.4
20260502123809 51 92 0.0 0.0 0.00 1.17 0.00 90 1011.0
20260502123708 51 92 0.0 0.0 0.00 1.19 0.00 90 1011.0
20260502123608 51 92 0.0 0.0 0.00 1.20 0.00 90 1011.1
20260502123507 51 92 0.0 0.0 0.00 1.20 0.00 90 1011.1
20260502123408 51 92 0.0 0.0 0.00 1.22 0.00 90 1011.1
20260502123308 51 92 0.0 0.0 0.00 1.22 0.00 90 1011.0
20260502123207 51 92 0.0 0.0 0.00 1.22 0.00 90 1011.0
20260502123110 51 92 0.0 0.0 0.00 1.23 0.00 90 1010.9
20260502123007 51 92 0.0 0.0 0.00 1.24 0.00 90 1010.9
20260502122909 51 92 0.0 0.0 0.00 1.24 0.00 90 1010.9
20260502122808 51 92 0.0 0.0 0.00 1.25 0.00 90 1010.9
20260502122708 51 92 0.0 0.0 0.00 1.25 0.00 90 1010.8
20260502122607 51 92 0.0 0.0 0.00 1.26 0.00 90 1010.9
20260502122507 51 92 0.0 0.0 0.00 1.26 0.00 90 1010.8
20260502122409 51 92 0.0 0.0 0.00 1.27 0.00 90 1010.8
20260502122309 51 92 0.0 0.0 0.00 1.28 0.00 90 1010.8
20260502122207 51 92 0.0 0.0 0.00 1.30 0.00 90 1010.8
20260502122108 51 92 0.0 0.0 0.00 1.30 0.00 90 1010.8
20260502122006 51 92 0.0 0.0 0.00 1.31 0.00 90 1010.8
20260502121908 51 92 0.0 0.0 0.00 1.32 0.00 90 1010.8
20260502121807 51 92 0.0 0.0 0.00 1.33 0.00 90 1010.8
20260502121708 51 92 0.0 0.0 0.00 1.34 0.00 90 1010.7
20260502121609 51 92 0.0 0.0 0.00 1.35 0.00 90 1010.7
20260502121508 51 92 0.0 0.0 0.00 1.37 0.00 90 1010.6
20260502121409 51 92 0.0 0.0 0.00 1.37 0.00 90 1010.7
20260502121309 51 92 0.0 0.0 0.00 1.40 0.00 90 1010.7
20260502121208 51 92 0.0 0.0 0.00 1.40 0.00 90 1010.7
20260502121107 51 92 0.0 0.0 0.00 1.41 0.00 90 1010.7
20260502121009 51 92 0.0 0.0 0.00 1.43 0.00 90 1010.6
20260502120907 51 92 0.0 0.0 0.00 1.43 0.00 90 1010.6
20260502120807 51 92 0.0 0.0 0.00 1.44 0.00 90 1010.7
20260502120708 51 92 0.0 0.0 0.00 1.44 0.00 90 1010.7
20260502120607 51 92 0.0 0.0 0.00 1.45 0.00 90 1010.6
20260502120509 51 92 0.0 0.0 0.00 1.45 0.00 90 1010.6
20260502120407 51 92 0.0 0.0 0.00 1.46 0.00 90 1010.6
20260502120309 51 92 0.0 0.0 0.00 1.47 0.00 90 1010.6
20260502120208 51 92 0.0 0.0 0.00 1.47 0.00 90 1010.6
20260502120108 51 92 0.0 0.0 0.00 1.47 0.00 90 1010.5
20260502115909 51 92 0.0 0.0 0.00 1.48 0.00 90 1010.6
20260502115808 51 92 0.0 0.0 0.00 1.49 0.00 90 1010.5
20260502115709 51 92 0.0 0.0 0.00 1.50 0.00 90 1010.5
20260502115607 51 92 0.0 0.0 0.00 1.50 0.00 90 1010.5
20260502115507 51 92 0.0 0.0 0.00 1.51 0.00 90 1010.5
20260502115408 51 92 0.0 0.0 0.00 1.51 0.00 90 1010.5
20260502115308 51 92 0.0 0.0 0.00 1.51 0.00 90 1010.4
20260502115207 51 92 0.0 0.0 0.00 1.51 0.00 90 1010.4
20260502115107 51 92 0.0 0.0 0.00 1.52 0.00 90 1010.4
20260502115009 51 92 0.0 0.0 0.00 1.52 0.00 90 1010.4
20260502114908 51 92 0.0 0.0 0.00 1.52 0.00 90 1010.4
20260502114807 51 92 0.0 0.0 0.00 1.53 0.00 90 1010.4
20260502114707 51 92 0.0 0.0 0.00 1.53 0.00 90 1010.3
20260502114607 51 92 0.0 0.0 0.00 1.53 0.00 90 1010.3
20260502114507 51 92 0.0 0.0 0.00 1.53 0.00 90 1010.3
20260502114408 51 92 0.0 0.0 0.00 1.54 0.00 90 1010.4
20260502114306 51 92 0.0 0.0 0.00 1.55 0.00 90 1010.3
20260502114207 51 92 0.0 0.0 0.00 1.56 0.00 90 1010.4
20260502114107 51 92 0.0 0.0 0.00 1.58 0.00 90 1010.4
20260502114007 51 92 0.0 0.0 0.00 1.60 0.00 90 1010.4
20260502113908 51 92 0.0 0.0 0.00 1.60 0.00 90 1010.3
20260502113807 51 92 0.0 0.0 0.00 1.62 0.00 90 1010.3
20260502113708 51 92 0.0 0.0 0.00 1.64 0.00 90 1010.3
20260502113607 51 92 0.0 0.0 0.00 1.64 0.00 90 1010.3
20260502113508 51 92 0.0 0.0 0.00 1.66 0.00 90 1010.3
20260502113406 51 92 0.0 0.0 0.00 1.67 0.00 90 1010.3
20260502113307 51 92 0.0 0.0 0.00 1.67 0.00 90 1010.3
20260502113208 51 92 0.0 0.0 0.00 1.68 0.00 90 1010.3
20260502113107 51 92 0.0 0.0 0.00 1.68 0.00 90 1010.2
20260502113007 51 92 0.0 0.0 0.00 1.68 0.00 90 1010.2
20260502112907 51 92 0.0 0.0 0.00 1.68 0.00 90 1010.1
20260502112808 51 92 0.0 0.0 0.00 1.69 0.00 90 1010.1
20260502112706 51 92 0.0 0.0 0.00 1.69 0.00 90 1010.1
20260502112607 51 92 0.0 0.0 0.00 1.70 0.00 90 1010.0
20260502112507 51 92 0.0 0.0 0.00 1.70 0.00 90 1010.0
20260502112407 51 92 0.0 0.0 0.00 1.71 0.00 90 1010.0
20260502112307 51 92 0.0 0.0 0.00 1.72 0.00 90 1010.0
20260502112206 51 92 0.0 0.0 0.00 1.72 0.00 90 1010.0
20260502112107 51 92 0.0 0.0 0.00 1.73 0.00 90 1010.0
20260502112006 51 92 0.0 0.0 0.00 1.73 0.00 90 1010.0
20260502111906 51 92 0.0 0.0 0.00 1.73 0.00 90 1010.0
20260502111806 51 92 0.0 0.0 0.00 1.74 0.00 90 1010.0
20260502111706 51 92 0.0 0.0 0.00 1.74 0.00 90 1010.0
20260502111606 51 92 0.0 0.0 0.00 1.74 0.00 90 1009.9
20260502111506 51 92 0.0 0.0 0.00 1.74 0.00 90 1009.9
20260502111408 51 92 0.0 0.0 0.00 1.74 0.00 90 1009.9
20260502111306 51 92 0.0 0.0 0.00 1.74 0.00 90 1009.9
20260502111206 51 92 0.0 0.0 0.00 1.75 0.00 90 1009.9
20260502111106 51 92 0.0 0.0 0.00 1.75 0.00 90 1009.8
20260502111006 51 92 0.0 0.0 0.00 1.76 0.00 90 1009.8
20260502110906 51 92 0.0 0.0 0.00 1.76 0.00 90 1009.8
20260502110807 51 92 0.0 0.0 0.00 1.76 0.00 90 1009.9
20260502110707 51 92 0.0 0.0 0.00 1.77 0.00 90 1009.9
20260502110607 51 92 0.0 0.0 0.00 1.77 0.00 90 1009.8
20260502110506 51 92 0.0 0.0 0.00 1.78 0.00 90 1009.8
20260502110408 51 92 0.0 0.0 0.00 1.78 0.00 90 1009.9
20260502110306 51 92 0.0 0.0 0.00 1.78 0.00 90 1009.7
20260502110206 51 92 0.0 0.0 0.00 1.79 0.00 90 1009.8
20260502110108 51 92 0.0 0.0 0.00 1.79 0.00 90 1009.8
20260502110007 51 92 0.0 0.0 0.00 1.79 0.00 90 1009.8
20260502105905 51 92 0.0 0.0 0.00 1.80 0.00 90 1009.8
20260502105806 51 92 0.0 0.0 0.00 1.80 0.00 90 1009.8
20260502105708 51 92 0.0 0.0 0.00 1.80 0.00 90 1009.7
20260502105607 51 92 0.0 0.0 0.00 1.80 0.00 90 1009.7
20260502105507 51 92 0.0 0.0 0.00 1.81 0.00 90 1009.7
20260502105406 51 92 0.0 0.0 0.00 1.81 0.00 90 1009.7
20260502105307 51 92 0.0 0.0 0.00 1.81 0.00 90 1009.7
20260502105206 51 92 0.0 0.0 0.00 1.82 0.00 90 1009.6
20260502105106 51 92 0.0 0.0 0.00 1.82 0.00 90 1009.6
20260502105006 51 92 0.0 0.0 0.00 1.84 0.00 90 1009.7
20260502104904 51 92 0.0 0.0 0.00 1.84 0.00 90 1009.7
20260502104803 51 92 0.0 0.0 0.00 1.84 0.00 90 1009.7
20260502104704 51 92 0.0 0.0 0.00 1.84 0.00 90 1009.7
20260502104604 51 92 0.0 0.0 0.00 1.84 0.00 90 1009.8
20260502104503 51 92 0.0 0.0 0.00 1.85 0.00 90 1009.8
20260502104403 51 92 0.0 0.0 0.00 1.85 0.00 90 1009.8
20260502104302 51 92 0.0 0.0 0.00 1.86 0.00 90 1009.7
20260502104202 51 92 0.0 0.0 0.00 1.86 0.00 90 1009.7
20260502104102 51 92 0.0 0.0 0.00 1.87 0.00 90 1009.7
20260502104002 51 92 0.0 0.0 0.00 1.88 0.00 90 1009.7
20260502103902 52 92 0.0 0.0 0.00 1.88 0.00 90 1009.7
20260502103801 51 92 0.0 0.0 0.00 1.89 0.00 90 1009.7
20260502103702 52 92 0.0 0.0 0.00 1.89 0.00 90 1009.7
20260502103557 52 140 0.0 0.0 0.00 1.90 0.00 90 1009.7
20260502103500 52 140 0.0 0.0 0.00 1.90 0.00 90 1009.7
20260502103356 52 140 0.0 0.0 0.00 1.90 0.00 90 1009.7
20260502103252 52 140 0.0 0.0 0.00 1.91 0.00 90 1009.7
20260502103152 52 140 0.0 0.0 0.00 1.91 0.00 90 1009.7
20260502103047 52 140 0.0 0.0 0.00 1.91 0.00 90 1009.6
20260502102945 52 140 0.0 0.0 0.00 1.92 0.00 90 1009.6
20260502102845 52 140 0.0 0.0 0.00 1.92 0.00 90 1009.6
20260502102741 52 140 0.0 0.0 0.00 1.92 0.00 90 1009.6
20260502102640 52 140 0.0 0.0 0.00 1.93 0.00 90 1009.6
20260502102531 52 140 0.0 0.0 0.00 1.93 0.00 90 1009.6
20260502102432 52 140 0.0 0.0 0.00 1.93 0.00 90 1009.6
20260502102331 52 140 0.0 0.0 0.00 1.93 0.00 90 1009.5
20260502102230 52 140 0.0 0.0 0.00 1.93 0.00 90 1009.6
20260502102132 52 140 0.0 0.0 0.00 1.94 0.00 90 1009.6
20260502102032 52 140 0.0 0.0 0.00 1.94 0.00 90 1009.6
20260502101933 52 140 0.0 0.0 0.00 1.94 0.00 90 1009.5
20260502101834 52 140 0.0 0.0 0.00 1.94 0.00 90 1009.5
20260502101733 52 140 0.0 0.0 0.00 1.94 0.00 90 1009.4
20260502101631 52 140 0.0 0.0 0.00 1.94 0.00 90 1009.5
20260502101533 52 140 0.0 0.0 0.00 1.94 0.00 90 1009.4
20260502101432 52 141 0.0 0.0 0.00 1.94 0.00 90 1009.4
20260502101333 52 141 0.0 0.0 0.00 1.94 0.00 90 1009.4
20260502101231 52 141 0.0 0.0 0.00 1.94 0.00 90 1009.3
20260502101132 52 125 0.0 0.0 0.00 1.94 0.00 90 1009.4
20260502101032 52 125 0.0 0.0 0.00 1.94 0.00 90 1009.4
20260502100933 52 107 0.0 0.0 0.00 1.94 0.00 90 1009.4
20260502100832 52 107 0.0 0.0 0.00 1.94 0.00 90 1009.4
20260502100733 52 107 0.0 0.0 0.00 1.94 0.00 90 1009.4
20260502100631 52 107 0.0 0.0 0.00 1.94 0.00 90 1009.3
20260502100528 52 107 0.0 0.0 0.00 1.94 0.00 90 1009.4
20260502100420 52 107 0.0 0.0 0.00 1.94 0.00 90 1009.3
20260502100316 52 107 0.0 0.0 0.00 1.94 0.00 90 1009.2
20260502100216 52 107 0.0 0.0 0.00 1.94 0.00 90 1009.3
20260502100110 52 107 0.0 0.0 0.00 1.94 0.00 90 1009.2
20260502091506 53 131 0.0 1.0 0.00 2.08 0.00 90 1008.6
20260502091404 53 131 0.0 1.0 0.00 2.09 0.00 90 1008.6
20260502091303 53 131 0.0 1.0 0.00 2.09 0.00 90 1008.5
20260502091203 53 131 0.0 1.0 0.00 2.09 0.00 90 1008.5
20260502091104 53 131 0.0 1.0 0.00 2.10 0.00 90 1008.5
20260502091004 53 131 0.0 1.0 0.00 2.10 0.00 90 1008.4
20260502090903 53 131 0.0 1.0 0.00 2.10 0.00 90 1008.5
20260502090803 53 131 0.0 1.0 0.00 2.10 0.00 90 1008.4
20260502090703 53 131 0.0 1.0 0.00 2.11 0.00 90 1008.4
20260502090603 53 131 0.0 1.0 0.00 2.11 0.00 90 1008.4
20260502090503 53 131 0.0 1.0 0.00 2.11 0.00 90 1008.4
20260502090404 53 131 0.0 1.0 0.00 2.11 0.00 90 1008.3
20260502090304 53 135 0.0 1.0 0.00 2.11 0.00 90 1008.3
20260502090203 53 135 0.0 1.0 0.00 2.11 0.00 90 1008.2
20260502071503 54 63 0.0 1.0 0.00 2.36 0.00 90 1008.0
20260502071403 54 63 0.0 1.0 0.00 2.36 0.00 90 1007.9
20260502071301 54 63 0.0 1.0 0.00 2.36 0.00 90 1007.9
20260502071202 54 63 0.0 1.0 0.00 2.36 0.00 90 1008.0
20260502071102 54 63 0.0 1.0 0.00 2.36 0.00 90 1007.9
20260502071004 54 63 0.0 1.0 0.00 2.36 0.00 90 1007.9
20260502070904 54 63 0.0 1.0 0.00 2.36 0.00 90 1007.9
20260502070803 54 63 0.0 1.0 0.00 2.36 0.00 90 1008.0
20260502070702 54 63 0.0 2.0 0.00 2.36 0.00 90 1007.9
20260502070602 54 63 0.0 2.0 0.00 2.36 0.00 90 1008.0
20260502070502 54 63 0.0 2.0 0.00 2.36 0.00 90 1008.0
20260502070402 54 63 0.0 2.0 0.00 2.36 0.00 90 1008.1
20260502070302 54 63 0.0 2.0 0.00 2.36 0.00 90 1008.0
20260502070203 54 63 0.0 2.0 0.00 2.36 0.00 90 1008.1
20260502070004 54 63 0.0 2.0 0.00 2.36 0.00 90 1008.1
20260502065902 54 63 0.0 2.0 0.00 2.36 0.00 90 1008.1
20260502065802 54 63 0.0 2.0 0.00 2.36 0.00 90 1008.1
20260502065702 54 59 0.0 1.0 0.00 2.36 0.00 90 1008.1
20260502065602 54 59 0.0 2.0 0.00 2.36 0.00 90 1008.1
20260502065502 54 59 0.0 2.0 0.00 2.36 0.00 90 1008.1
20260502065403 54 59 0.0 2.0 0.00 2.36 0.00 90 1008.2
20260502065306 54 61 0.0 2.0 0.00 2.36 0.00 90 1008.1
20260502065203 54 61 1.0 2.0 0.00 2.36 0.00 90 1008.1
20260502065103 54 56 0.0 2.0 0.00 2.36 0.00 90 1008.1
20260502065004 54 55 0.0 2.0 0.00 2.36 0.00 90 1008.1
20260502064859 54 55 1.0 2.0 0.00 2.36 0.00 90 1008.2
20260502064758 54 55 1.0 2.0 0.00 2.36 0.00 90 1008.1
20260502064656 54 55 0.0 2.0 0.00 2.36 0.00 90 1008.1
20260502064557 54 56 0.0 2.0 0.00 2.36 0.00 90 1008.1
20260502064457 54 56 0.0 2.0 0.00 2.36 0.00 90 1008.1
20260502064356 54 56 0.0 2.0 0.00 2.36 0.00 90 1008.1
20260502064256 54 56 1.0 2.0 0.00 2.36 0.00 90 1008.0
20260502064157 54 75 1.0 2.0 0.00 2.36 0.00 90 1008.1
20260502064058 54 72 1.0 2.0 0.00 2.36 0.00 90 1008.1
20260502063958 54 83 1.0 2.0 0.00 2.36 0.00 90 1008.1
20260502063857 54 86 0.0 2.0 0.00 2.36 0.00 90 1008.1
20260502063757 54 86 0.0 2.0 0.00 2.36 0.00 90 1008.1
20260502063656 54 86 0.0 2.0 0.00 2.36 0.00 90 1008.1
20260502063558 54 86 0.0 2.0 0.00 2.36 0.00 90 1008.0
20260502063457 54 86 0.0 2.0 0.00 2.36 0.00 90 1008.0
20260502063356 54 86 1.0 2.0 0.00 2.36 0.00 90 1008.1
20260502063257 54 86 1.0 2.0 0.00 2.36 0.00 90 1008.0
20260502063158 54 341 0.0 2.0 0.00 2.36 0.00 90 1007.9
20260502063056 54 312 0.0 2.0 0.00 2.36 0.00 90 1007.9
20260502062956 54 320 0.0 2.0 0.00 2.36 0.00 90 1007.8
20260502062856 54 320 0.0 2.0 0.00 2.36 0.00 90 1007.8
20260502062756 54 320 0.0 2.0 0.00 2.36 0.00 90 1007.8
20260502062658 54 320 0.0 2.0 0.00 2.36 0.00 90 1007.8
20260502062558 54 320 1.0 2.0 0.00 2.36 0.00 90 1007.8
20260502062458 54 317 1.0 2.0 0.00 2.36 0.00 90 1007.8
20260502062357 54 190 0.0 2.0 0.00 2.36 0.00 90 1007.7
20260502062256 54 192 1.0 2.0 0.00 2.36 0.00 90 1007.7
20260502062158 54 192 1.0 2.0 0.00 2.36 0.00 90 1007.7
20260502062057 54 124 0.0 1.0 0.00 2.36 0.00 90 1007.8
20260502061956 54 124 0.0 2.0 0.00 2.36 0.00 90 1007.7
20260502061856 54 124 0.0 2.0 0.00 2.36 0.00 90 1007.8
20260502061758 54 124 0.0 2.0 0.00 2.36 0.00 90 1007.8
20260502061656 54 124 0.0 3.0 0.00 2.37 0.00 90 1007.8
20260502061556 54 124 0.0 3.0 0.00 2.37 0.00 90 1007.7
20260502061455 54 124 1.0 3.0 0.00 2.37 0.00 90 1007.8
20260502061351 54 124 1.0 3.0 0.00 2.37 0.00 90 1007.8
20260502061248 54 124 1.0 3.0 0.00 2.38 0.00 90 1007.8
20260502061149 54 135 1.0 3.0 0.00 2.38 0.00 90 1007.8
20260502061044 54 135 1.0 3.0 0.00 2.38 0.00 90 1007.8
20260502060941 54 135 0.0 3.0 0.00 2.38 0.00 90 1007.8
20260502060838 54 135 1.0 3.0 0.00 2.38 0.00 90 1007.8
20260502060733 54 135 2.0 3.0 0.00 2.38 0.00 90 1007.8
20260502060632 54 120 1.0 3.0 0.00 2.38 0.00 90 1007.8
20260502060531 54 87 1.0 3.0 0.00 2.38 0.00 90 1007.8
20260502060433 54 300 1.0 3.0 0.00 2.38 0.00 90 1007.8
20260502060314 54 300 1.0 3.0 0.00 2.38 0.00 90 1007.8
20260502060207 54 51 1.0 3.0 0.00 2.38 0.00 90 1007.8
20260502060105 54 59 1.0 3.0 0.00 2.38 0.00 90 1007.9
20260502060004 54 37 1.0 3.0 0.00 2.38 0.00 90 1007.8
20260502055902 54 62 1.0 3.0 0.00 2.38 0.00 90 1007.9
20260502055802 54 159 1.0 2.0 0.00 2.38 0.00 90 1007.8
20260502055702 54 159 1.0 3.0 0.00 2.38 0.00 90 1007.9
20260502055602 54 159 1.0 3.0 0.00 2.38 0.00 90 1007.8
20260502055503 54 159 1.0 3.0 0.00 2.38 0.00 90 1007.8
20260502055402 54 159 0.0 3.0 0.00 2.38 0.00 90 1007.8
20260502055305 54 178 0.0 3.0 0.00 2.38 0.00 90 1007.8
20260502055202 54 178 0.0 3.0 0.00 2.38 0.00 90 1007.8
20260502055102 54 178 0.0 3.0 0.00 2.38 0.00 90 1007.8
20260502055004 54 178 0.0 3.0 0.00 2.38 0.00 90 1007.8
20260502054903 54 178 1.0 3.0 0.00 2.38 0.00 90 1007.9
20260502054802 54 141 0.0 3.0 0.00 2.38 0.00 90 1007.9
20260502054703 54 128 0.0 2.0 0.00 2.38 0.00 90 1007.9
20260502054603 54 128 0.0 2.0 0.00 2.38 0.00 90 1007.9
20260502054503 54 75 1.0 2.0 0.00 2.38 0.00 90 1007.9
20260502054402 54 76 1.0 2.0 0.00 2.38 0.00 90 1008.0
20260502054302 54 76 0.0 2.0 0.00 2.38 0.00 90 1008.0
20260502054201 54 340 0.0 2.0 0.00 2.38 0.00 90 1008.0
20260502054103 54 340 1.0 3.0 0.00 2.38 0.00 90 1008.0
20260502054002 54 340 1.0 3.0 0.00 2.38 0.00 90 1008.0
20260502053903 54 340 0.0 3.0 0.00 2.38 0.00 90 1008.0
20260502053804 54 340 1.0 3.0 0.00 2.38 0.00 90 1008.0
20260502053702 54 333 0.0 3.0 0.00 2.38 0.00 90 1008.0
20260502053603 54 337 0.0 3.0 0.00 2.38 0.00 90 1007.9
20260502053503 54 337 0.0 4.0 0.00 2.38 0.00 90 1007.9
20260502053402 54 337 1.0 4.0 0.00 2.38 0.00 90 1007.9
20260502053301 54 337 1.0 4.0 0.00 2.38 0.00 90 1007.9
20260502053203 54 353 1.0 4.0 0.00 2.38 0.00 90 1007.9
20260502053102 54 85 1.0 4.0 0.00 2.38 0.00 90 1007.9
20260502053004 54 85 0.0 4.0 0.00 2.38 0.00 90 1007.9
20260502052902 54 86 0.0 4.0 0.00 2.38 0.00 90 1007.8
20260502052802 54 86 1.0 4.0 0.00 2.38 0.00 90 1007.9
20260502052703 54 86 2.0 4.0 0.00 2.38 0.00 90 1007.9
20260502052602 54 90 2.0 4.0 0.00 2.38 0.00 90 1007.9
20260502052502 54 100 1.0 4.0 0.00 2.38 0.00 90 1007.9
20260502052402 54 80 1.0 4.0 0.00 2.38 0.00 90 1007.8
20260502052305 54 254 1.0 4.0 0.00 2.38 0.00 90 1007.9
20260502052202 54 83 2.0 4.0 0.00 2.38 0.00 90 1007.8
20260502052102 54 54 2.0 4.0 0.00 2.38 0.00 90 1007.8
20260502052003 55 76 2.0 4.0 0.00 2.38 0.00 90 1007.9
20260502051902 55 96 1.0 4.0 0.00 2.38 0.00 90 1007.8
20260502051804 55 80 1.0 4.0 0.00 2.38 0.00 90 1007.7
20260502051702 55 80 2.0 4.0 0.00 2.38 0.00 90 1007.8
20260502051601 55 80 2.0 4.0 0.00 2.38 0.00 90 1007.8
20260502051503 55 97 2.0 4.0 0.00 2.38 0.00 90 1007.8
20260502051402 55 116 1.0 4.0 0.00 2.38 0.00 90 1007.8
20260502051302 55 125 1.0 4.0 0.00 2.38 0.00 90 1007.8
20260502051203 55 54 1.0 4.0 0.00 2.38 0.00 90 1007.9
20260502051102 55 0 1.0 5.0 0.00 2.38 0.00 90 1007.7
20260502051004 55 51 1.0 5.0 0.00 2.38 0.00 90 1007.8
20260502050903 55 97 1.0 5.0 0.00 2.38 0.00 90 1007.7
20260502050802 55 97 1.0 5.0 0.00 2.38 0.00 90 1007.7
20260502050703 55 45 2.0 5.0 0.00 2.38 0.00 90 1007.7
20260502050602 55 44 2.0 5.0 0.00 2.38 0.00 90 1007.7
20260502050503 55 93 1.0 5.0 0.00 2.38 0.00 90 1007.7
20260502050403 55 162 1.0 5.0 0.00 2.38 0.00 90 1007.7
20260502050302 55 357 2.0 5.0 0.00 2.38 0.00 90 1007.8
20260502050203 55 100 2.0 5.0 0.00 2.38 0.00 90 1007.7
20260502050058 55 125 1.0 4.0 0.00 2.38 0.00 90 1007.8
20260502045957 55 125 2.0 4.0 0.00 2.38 2.38 90 1007.7
20260502045856 55 69 1.0 4.0 0.00 2.38 2.38 90 1007.8
20260502045757 55 116 1.0 4.0 0.00 2.38 2.38 90 1007.7
20260502045655 55 0 0.0 3.0 0.00 2.38 2.38 90 1007.7
20260502045558 55 0 1.0 3.0 0.00 2.38 2.38 90 1007.8
20260502045454 55 0 1.0 3.0 0.00 2.38 2.38 90 1007.7
20260502045354 55 75 1.0 3.0 0.00 2.38 2.38 90 1007.7
20260502045255 55 58 2.0 3.0 0.00 2.38 2.38 90 1007.7
20260502045157 55 238 1.0 3.0 0.00 2.38 2.38 90 1007.7
20260502045056 55 343 1.0 3.0 0.00 2.38 2.38 90 1007.8
20260502044956 55 343 1.0 5.0 0.00 2.38 2.38 90 1007.7
20260502044855 55 329 0.0 5.0 0.00 2.38 2.38 90 1007.8
20260502044755 55 195 1.0 5.0 0.00 2.38 2.38 90 1007.7
20260502044654 55 107 1.0 5.0 0.00 2.38 2.38 90 1007.7
20260502044554 55 107 2.0 5.0 0.00 2.38 2.38 90 1007.8
20260502044455 55 113 2.0 5.0 0.00 2.38 2.38 90 1007.8
20260502044354 55 113 2.0 5.0 0.00 2.38 2.38 90 1007.7
20260502044254 55 188 2.0 5.0 0.00 2.38 2.38 90 1007.8
20260502044156 55 144 1.0 5.0 0.00 2.38 2.38 90 1007.7
20260502044055 55 207 1.0 5.0 0.00 2.38 2.38 90 1007.7
20260502043954 55 3 1.0 4.0 0.00 2.38 2.38 90 1007.7
20260502043854 55 140 1.0 4.0 0.00 2.38 2.38 90 1007.7
20260502043755 55 18 1.0 4.0 0.00 2.38 2.38 90 1007.8
20260502043654 55 17 1.0 4.0 0.00 2.38 2.38 90 1007.7
20260502043554 55 21 1.0 4.0 0.00 2.38 2.38 90 1007.7
20260502043454 55 128 1.0 4.0 0.00 2.38 2.38 90 1007.7
20260502043354 55 113 1.0 4.0 0.00 2.38 2.38 90 1007.7
20260502043255 55 113 2.0 4.0 0.00 2.38 2.38 90 1007.7
20260502043155 55 113 3.0 4.0 0.00 2.38 2.38 90 1007.7
20260502043053 55 94 2.0 4.0 0.00 2.38 2.38 90 1007.7
20260502042955 55 127 2.0 4.0 0.00 2.38 2.38 90 1007.7
20260502042855 55 130 2.0 4.0 0.00 2.38 2.38 90 1007.6
20260502042754 55 179 2.0 3.0 0.00 2.38 2.38 90 1007.7
20260502042655 55 35 1.0 3.0 0.00 2.38 2.38 90 1007.6
20260502042555 55 73 1.0 3.0 0.00 2.38 2.38 90 1007.6
20260502042453 55 103 1.0 3.0 0.00 2.38 2.38 90 1007.6
20260502042355 55 106 1.0 3.0 0.00 2.38 2.38 90 1007.6
20260502042254 55 62 1.0 3.0 0.00 2.38 2.38 90 1007.6
20260502042153 55 90 1.0 5.0 0.00 2.38 2.38 90 1007.6
20260502042055 55 54 1.0 5.0 0.00 2.38 2.38 90 1007.5
20260502041953 55 54 1.0 5.0 0.00 2.38 2.38 90 1007.5
20260502041853 55 61 0.0 5.0 0.00 2.38 2.38 90 1007.5
20260502041755 55 28 1.0 5.0 0.00 2.38 2.38 90 1007.5
20260502041654 55 28 1.0 5.0 0.00 2.38 2.38 90 1007.5
20260502041554 55 78 1.0 5.0 0.00 2.38 2.38 90 1007.5
20260502041455 55 78 2.0 5.0 0.00 2.38 2.38 90 1007.5
20260502041354 55 69 2.0 5.0 0.00 2.38 2.38 90 1007.5
20260502041254 55 14 2.0 5.0 0.00 2.38 2.38 90 1007.5
20260502041153 55 78 1.0 3.0 0.00 2.38 2.38 90 1007.5
20260502041055 55 75 1.0 3.0 0.00 2.38 2.38 90 1007.4
20260502040954 55 75 1.0 3.0 0.00 2.38 2.38 90 1007.5
20260502040853 55 66 1.0 3.0 0.00 2.38 2.38 90 1007.5
20260502040754 55 96 1.0 3.0 0.00 2.38 2.38 90 1007.5
20260502040655 55 96 1.0 3.0 0.00 2.38 2.38 90 1007.6
20260502040554 55 92 1.0 2.0 0.00 2.38 2.38 90 1007.6
20260502040453 55 92 1.0 2.0 0.00 2.38 2.38 90 1007.6
20260502040355 55 100 1.0 3.0 0.00 2.38 2.38 90 1007.6
20260502040254 55 100 0.0 4.0 0.00 2.38 2.38 90 1007.6
20260502040153 55 0 0.0 4.0 0.00 2.38 2.38 90 1007.6
20260502040053 55 0 0.0 4.0 0.00 2.38 2.38 90 1007.6
20260502035954 55 0 0.0 4.0 0.00 2.38 2.38 90 1007.6
20260502035854 55 0 1.0 4.0 0.00 2.38 2.38 90 1007.5
20260502035755 55 0 1.0 4.0 0.00 2.38 2.38 90 1007.5
20260502035653 55 0 1.0 4.0 0.00 2.38 2.38 90 1007.6
20260502035553 55 0 2.0 4.0 0.00 2.38 2.38 90 1007.6
20260502035454 55 32 3.0 4.0 0.00 2.38 2.38 90 1007.7
20260502035354 55 0 2.0 4.0 0.00 2.38 2.38 90 1007.7
20260502035253 55 141 2.0 4.0 0.00 2.38 2.38 90 1007.7
20260502035153 55 25 2.0 6.0 0.00 2.38 2.38 90 1007.7
20260502035053 55 30 2.0 6.0 0.00 2.38 2.38 90 1007.7
20260502034953 55 27 1.0 6.0 0.00 2.38 2.38 90 1007.6
20260502034853 55 209 1.0 6.0 0.00 2.38 2.38 90 1007.7
20260502034755 55 213 2.0 6.0 0.00 2.38 2.38 90 1007.7
20260502034654 55 86 1.0 6.0 0.00 2.38 2.38 90 1007.6
20260502034552 55 175 1.0 6.0 0.00 2.38 2.38 90 1007.7
20260502034453 55 18 2.0 6.0 0.00 2.38 2.38 90 1007.6
20260502034352 55 56 2.0 6.0 0.00 2.38 2.38 90 1007.7
20260502034254 55 66 1.0 6.0 0.00 2.38 2.38 90 1007.7
20260502034153 55 134 1.0 4.0 0.00 2.38 2.38 90 1007.7
20260502034053 55 134 1.0 4.0 0.00 2.38 2.38 90 1007.6
20260502033952 55 134 2.0 4.0 0.00 2.38 2.38 90 1007.6
20260502033853 55 93 2.0 4.0 0.00 2.38 2.38 90 1007.7
20260502033752 55 78 2.0 4.0 0.00 2.38 2.38 90 1007.7
20260502033653 55 262 1.0 4.0 0.00 2.38 2.38 90 1007.7
20260502033554 55 21 1.0 4.0 0.00 2.38 2.38 90 1007.7
20260502033452 55 25 2.0 4.0 0.00 2.38 2.38 90 1007.7
20260502033354 55 124 2.0 4.0 0.00 2.38 2.38 90 1007.6
20260502033253 55 0 2.0 4.0 0.00 2.38 2.38 90 1007.6
20260502033152 55 158 1.0 4.0 0.00 2.38 2.38 90 1007.6
20260502033054 55 13 1.0 7.0 0.00 2.38 2.38 90 1007.7
20260502032952 55 13 2.0 7.0 0.00 2.38 2.38 90 1007.7
20260502032852 56 175 1.0 7.0 0.00 2.38 2.38 90 1007.6
20260502032752 56 179 1.0 7.0 0.00 2.38 2.38 90 1007.6
20260502032653 56 130 1.0 7.0 0.00 2.38 2.38 90 1007.6
20260502032553 56 71 1.0 7.0 0.00 2.38 2.38 90 1007.6
20260502032453 56 87 2.0 7.0 0.00 2.38 2.38 90 1007.6
20260502032352 56 104 2.0 7.0 0.00 2.38 2.38 90 1007.6
20260502032300 56 65 2.0 7.0 0.00 2.38 2.38 90 1007.6
20260502032155 56 62 2.0 7.0 0.00 2.38 2.38 90 1007.6
20260502032055 56 65 0.0 4.0 0.00 2.38 2.38 90 1007.6
20260502031952 56 92 1.0 4.0 0.00 2.38 2.38 90 1007.6
20260502031853 56 92 2.0 4.0 0.00 2.38 2.38 90 1007.5
20260502031752 56 61 2.0 4.0 0.00 2.38 2.38 90 1007.5
20260502031652 56 102 2.0 4.0 0.00 2.38 2.38 90 1007.6
20260502031553 56 109 2.0 4.0 0.00 2.38 2.38 90 1007.6
20260502031453 56 141 1.0 4.0 0.00 2.38 2.38 90 1007.5
20260502031352 56 56 0.0 4.0 0.00 2.38 2.38 90 1007.5
20260502031252 56 55 0.0 4.0 0.00 2.38 2.38 90 1007.5
20260502031153 56 55 0.0 4.0 0.00 2.38 2.38 90 1007.4
20260502031053 56 55 0.0 4.0 0.00 2.38 2.38 90 1007.3
20260502030952 56 55 0.0 4.0 0.00 2.38 2.38 90 1007.4
20260502030853 56 55 1.0 4.0 0.00 2.38 2.38 90 1007.3
20260502030753 56 55 1.0 4.0 0.00 2.38 2.38 90 1007.3
20260502030652 56 44 1.0 4.0 0.00 2.38 2.38 90 1007.3
20260502030552 56 113 0.0 4.0 0.00 2.38 2.38 90 1007.3
20260502030452 56 110 1.0 4.0 0.00 2.38 2.38 90 1007.3
20260502030351 56 110 2.0 4.0 0.00 2.38 2.38 90 1007.3
20260502030253 56 102 2.0 4.0 0.00 2.38 2.38 90 1007.2
20260502030151 56 113 1.0 4.0 0.00 2.38 2.38 90 1007.2
20260502030052 56 79 0.0 4.0 0.00 2.38 2.38 90 1007.2
20260502025952 56 90 0.0 4.0 0.00 2.38 2.38 90 1007.2
20260502025851 56 90 0.0 4.0 0.00 2.38 2.38 90 1007.2
20260502025753 56 90 0.0 4.0 0.00 2.38 2.38 90 1007.1
20260502025652 56 92 2.0 4.0 0.00 2.38 2.38 90 1007.1
20260502025552 56 92 1.0 4.0 0.00 2.38 2.38 90 1007.1
20260502025451 56 34 0.0 2.0 0.00 2.38 2.38 90 1007.0
20260502025353 56 34 1.0 2.0 0.00 2.38 2.38 90 1007.0
20260502025251 56 31 1.0 2.0 0.00 2.38 2.38 90 1007.0
20260502025154 56 69 1.0 2.0 0.00 2.38 2.38 90 1006.9
20260502025053 56 125 1.0 2.0 0.00 2.38 2.38 90 1006.9
20260502024953 56 25 1.0 6.0 0.00 2.38 2.38 90 1006.9
20260502024852 56 85 1.0 6.0 0.00 2.38 2.38 90 1006.8
20260502024752 56 80 1.0 6.0 0.00 2.38 2.38 90 1006.9
20260502024652 56 80 1.0 6.0 0.00 2.38 2.38 90 1006.8
20260502024552 56 72 0.0 6.0 0.00 2.38 2.38 90 1006.8
20260502024453 56 73 0.0 6.0 0.00 2.38 2.38 90 1006.8
20260502024351 56 73 0.0 6.0 0.00 2.38 2.38 90 1006.8
20260502024253 56 73 1.0 6.0 0.00 2.38 2.38 90 1006.8
20260502024151 56 107 2.0 6.0 0.00 2.38 2.38 90 1006.7
20260502024051 56 109 2.0 6.0 0.00 2.38 2.38 90 1006.6
20260502023953 56 93 0.0 3.0 0.00 2.38 2.38 90 1006.6
20260502023853 55 96 0.0 3.0 0.00 2.38 2.38 90 1006.6
20260502023752 55 96 0.0 3.0 0.00 2.38 2.38 90 1006.5
20260502023653 55 96 1.0 3.0 0.00 2.38 2.38 90 1006.7
20260502023551 55 96 1.0 3.0 0.00 2.38 2.38 90 1006.6
20260502023452 55 38 1.0 3.0 0.00 2.38 2.38 90 1006.6
20260502023350 56 38 1.0 3.0 0.00 2.38 2.38 90 1006.5
20260502023251 55 38 1.0 3.0 0.00 2.38 2.38 90 1006.4
20260502023151 56 38 2.0 3.0 0.00 2.38 2.38 90 1006.4
20260502023052 56 125 1.0 2.0 0.00 2.38 2.38 90 1006.3
20260502022951 56 125 1.0 2.0 0.00 2.38 2.38 90 1006.3
20260502022853 55 63 1.0 3.0 0.00 2.38 2.38 90 1006.2
20260502022751 56 0 0.0 3.0 0.00 2.38 2.38 90 1006.2
20260502022652 56 0 1.0 3.0 0.00 2.38 2.38 90 1006.1
20260502022553 56 0 1.0 3.0 0.00 2.38 2.38 90 1006.0
20260502022453 56 3 0.0 3.0 0.00 2.38 2.38 90 1005.9
20260502022352 56 10 1.0 3.0 0.00 2.38 2.38 90 1005.8
20260502022252 56 10 1.0 3.0 0.00 2.38 2.38 90 1005.8
20260502022151 56 10 1.0 3.0 0.00 2.38 2.38 90 1005.8
20260502022051 56 1 1.0 3.0 0.00 2.38 2.38 90 1005.7
20260502021950 56 10 1.0 3.0 0.00 2.38 2.38 90 1005.8
20260502021851 56 61 1.0 2.0 0.00 2.38 2.38 90 1005.8
20260502021751 56 51 1.0 2.0 0.00 2.38 2.38 90 1005.7
20260502021651 56 28 0.0 2.0 0.00 2.38 2.38 90 1005.7
20260502021552 56 28 0.0 3.0 0.00 2.38 2.38 90 1005.7
20260502021451 56 28 0.0 3.0 0.01 2.38 2.38 90 1005.8
20260502021350 56 27 0.0 3.0 0.01 2.38 2.38 90 1005.7
20260502021251 56 27 0.0 3.0 0.01 2.38 2.38 90 1005.8
20260502021150 56 27 1.0 3.0 0.01 2.38 2.38 90 1005.7
20260502021050 56 30 1.0 3.0 0.01 2.38 2.38 90 1005.7
20260502020952 56 52 0.0 3.0 0.01 2.38 2.38 90 1005.7
20260502020850 56 52 1.0 3.0 0.01 2.38 2.38 90 1005.8
20260502020752 56 52 1.0 3.0 0.01 2.38 2.38 90 1005.8
20260502020652 56 133 1.0 3.0 0.01 2.38 2.38 90 1005.8
20260502020551 56 92 1.0 3.0 0.01 2.38 2.38 90 1005.8
20260502020450 56 92 1.0 3.0 0.01 2.38 2.38 90 1005.8
20260502020350 56 92 1.0 3.0 0.01 2.38 2.38 90 1005.8
20260502020253 56 85 1.0 3.0 0.01 2.38 2.38 90 1005.8
20260502020151 56 327 1.0 3.0 0.01 2.38 2.38 90 1005.8
20260502020050 56 117 1.0 3.0 0.02 2.38 2.38 90 1005.7
20260502015952 56 145 1.0 3.0 0.02 2.36 2.34 90 1005.8
20260502015850 56 78 1.0 3.0 0.02 2.36 2.34 90 1005.8
20260502015751 56 151 2.0 3.0 0.02 2.36 2.34 90 1005.8
20260502015649 56 151 2.0 3.0 0.02 2.36 2.34 90 1005.9
20260502015545 56 51 1.0 3.0 0.02 2.36 2.34 90 1005.8
20260502015436 56 178 1.0 3.0 0.02 2.36 2.34 90 1005.8
20260502015333 56 178 0.0 5.0 0.02 2.36 2.34 90 1005.8
20260502015231 56 178 1.0 5.0 0.02 2.36 2.34 90 1005.8
20260502015132 56 178 1.0 5.0 0.02 2.36 2.34 90 1005.8
20260502015031 56 178 1.0 5.0 0.02 2.36 2.34 90 1005.8
20260502014931 56 178 1.0 5.0 0.02 2.36 2.34 90 1005.8
20260502014832 56 178 1.0 5.0 0.02 2.36 2.34 90 1005.7
20260502014732 56 302 1.0 5.0 0.02 2.36 2.34 90 1005.8
20260502014636 56 302 2.0 5.0 0.02 2.36 2.34 90 1005.7
20260502014532 56 80 2.0 5.0 0.02 2.36 2.34 90 1005.7
20260502014430 56 82 1.0 3.0 0.02 2.36 2.34 90 1005.7
20260502014332 56 312 2.0 3.0 0.02 2.36 2.34 90 1005.6
20260502014233 56 305 2.0 3.0 0.02 2.36 2.34 90 1005.6
20260502014131 56 6 1.0 3.0 0.02 2.36 2.34 90 1005.6
20260502014031 56 259 1.0 3.0 0.02 2.36 2.34 90 1005.6
20260502013931 56 281 1.0 3.0 0.02 2.36 2.34 90 1005.5
20260502013832 56 180 1.0 3.0 0.02 2.36 2.34 90 1005.6
20260502013722 56 180 1.0 3.0 0.02 2.36 2.34 90 1005.6
20260502013619 56 179 1.0 4.0 0.02 2.36 2.34 90 1005.5
20260502013517 56 75 1.0 4.0 0.02 2.36 2.34 90 1005.5
20260502013412 56 133 1.0 4.0 0.02 2.36 2.34 90 1005.5
20260502013309 56 134 2.0 4.0 0.02 2.36 2.34 90 1005.6
20260502013204 56 138 2.0 5.0 0.03 2.36 2.34 90 1005.4
20260502013103 56 134 2.0 5.0 0.03 2.36 2.34 90 1005.5
20260502013006 56 114 1.0 5.0 0.03 2.36 2.34 90 1005.4
20260502012902 56 130 1.0 5.0 0.03 2.36 2.34 90 1005.4
20260502012802 56 133 2.0 5.0 0.03 2.36 2.34 90 1005.3
20260502012704 56 45 2.0 5.0 0.03 2.36 2.34 90 1005.3
20260502012603 56 80 1.0 5.0 0.03 2.36 2.34 90 1005.3
20260502012503 56 76 1.0 5.0 0.03 2.36 2.34 90 1005.2
20260502012402 56 73 2.0 5.0 0.03 2.36 2.34 90 1005.3
20260502012306 56 71 2.0 5.0 0.04 2.36 2.34 90 1005.2
20260502012205 57 13 2.0 5.0 0.04 2.36 2.34 90 1005.2
20260502012103 57 4 2.0 5.0 0.04 2.36 2.34 90 1005.3
20260502012002 57 252 1.0 5.0 0.04 2.36 2.34 90 1005.4
20260502011904 57 350 0.0 5.0 0.04 2.36 2.34 90 1005.4
20260502011802 57 0 0.0 5.0 0.05 2.36 2.34 90 1005.3
20260502011702 57 0 1.0 5.0 0.05 2.36 2.34 90 1005.3
20260502011602 57 0 2.0 5.0 0.05 2.36 2.33 90 1005.3
20260502011503 57 85 1.0 2.0 0.04 2.36 2.33 90 1005.4
20260502011402 57 86 1.0 2.0 0.05 2.36 2.33 90 1005.5
20260502011303 57 0 1.0 2.0 0.05 2.36 2.33 90 1005.5
20260502011204 57 0 1.0 2.0 0.05 2.36 2.33 90 1005.6
20260502011102 57 0 1.0 2.0 0.05 2.36 2.33 90 1005.7
20260502011004 57 341 1.0 4.0 0.05 2.36 2.33 90 1005.8
20260502010903 57 54 0.0 4.0 0.05 2.36 2.33 90 1005.8
20260502010802 57 56 1.0 4.0 0.05 2.36 2.33 90 1005.8
20260502010703 57 78 1.0 4.0 0.05 2.36 2.33 90 1005.9
20260502010603 57 78 1.0 4.0 0.05 2.36 2.33 90 1005.8
20260502010502 57 72 1.0 4.0 0.05 2.36 2.33 90 1005.9
20260502010403 57 171 1.0 4.0 0.05 2.36 2.33 90 1005.9
20260502010303 57 102 1.0 5.0 0.05 2.36 2.33 90 1006.0
20260502010203 57 102 2.0 5.0 0.05 2.36 2.32 90 1005.9
20260502010003 57 257 1.0 5.0 0.04 2.32 2.36 90 1005.9
20260502005904 57 257 0.0 5.0 0.04 2.32 2.36 90 1005.9
20260502005802 57 257 1.0 5.0 0.04 2.32 2.36 90 1005.8
20260502005711 57 252 1.0 5.0 0.04 2.32 2.36 90 1005.8
20260502005602 57 212 1.0 5.0 0.05 2.32 2.36 90 1005.7
20260502005502 57 152 2.0 5.0 0.05 2.32 2.36 90 1005.7
20260502005404 58 155 1.0 4.0 0.05 2.32 2.36 90 1005.6
20260502005306 58 158 1.0 4.0 0.05 2.32 2.36 90 1005.4
20260502005203 58 133 1.0 4.0 0.05 2.32 2.36 90 1005.4
20260502005103 58 214 1.0 4.0 0.06 2.32 2.36 90 1005.4
20260502005003 58 206 2.0 4.0 0.06 2.32 2.36 90 1005.3
20260502004905 58 255 2.0 4.0 0.06 2.32 2.36 90 1005.3
20260502004802 58 128 2.0 5.0 0.07 2.32 2.36 90 1005.2
20260502004702 58 162 2.0 5.0 0.07 2.32 2.36 90 1005.1
20260502004602 58 289 1.0 5.0 0.07 2.32 2.36 90 1005.0
20260502004504 58 135 0.0 5.0 0.07 2.32 2.36 90 1005.0
20260502004402 58 62 0.0 5.0 0.07 2.32 2.36 90 1004.9
20260502004304 58 62 1.0 5.0 0.07 2.32 2.36 90 1004.8
20260502004202 58 62 1.0 5.0 0.07 2.32 2.36 90 1004.8
20260502004107 58 61 1.0 5.0 0.08 2.32 2.36 90 1004.7
20260502004005 58 0 2.0 5.0 0.08 2.32 2.36 90 1004.7
20260502003904 58 186 2.0 5.0 0.08 2.32 2.36 90 1004.5
20260502003804 58 148 0.0 5.0 0.09 2.32 2.36 90 1004.5
20260502003703 58 148 1.0 5.0 0.09 2.32 2.36 90 1004.5
20260502003603 58 148 2.0 5.0 0.09 2.32 2.36 90 1004.5
20260502003503 58 90 2.0 5.0 0.09 2.32 2.36 90 1004.5
20260502003403 58 140 2.0 5.0 0.10 2.32 2.36 90 1004.5
20260502003304 58 39 1.0 4.0 0.10 2.32 2.35 90 1004.5
20260502003203 58 148 1.0 4.0 0.09 2.32 2.35 90 1004.5
20260502003102 58 197 1.0 4.0 0.10 2.32 2.35 90 1004.5
20260502003004 58 196 1.0 4.0 0.10 2.32 2.35 90 1004.4
20260502002903 58 17 1.0 4.0 0.11 2.32 2.35 90 1004.5
20260502002804 58 20 2.0 4.0 0.11 2.32 2.35 90 1004.3
20260502002703 58 30 2.0 4.0 0.12 2.32 2.35 90 1004.3
20260502002604 58 83 2.0 4.0 0.13 2.32 2.35 90 1004.3
20260502002504 59 42 2.0 4.0 0.13 2.32 2.35 90 1004.3